EHI
0 0 0 0 0 0 0 0 0 0 0 0 0 0 0 0 1 2 2 1 0 0 1 1 1 2 3 3 3 3 1 0 0 0 0 0 0 0 0 0 0 0 0
0 0 0 0 0 0 0 0 0 0 0 0 0 0 0 0 1 3 2 1 0 0 1 2 1 1 2 2 2 2 1 0 0 0 0 0 0 0 0 0 0 0 0
0 0 0 0 0 0 0 0 0 0 0 0 0 0 0 0 2 3 2 1 0 0 1 2 2 1 1 1 1 1 1 0 0 0 0 0 0 0 0 0 0 0 0
0 0 0 0 0 0 0 0 0 0 0 0 0 0 0 0 1 2 1 0 0 0 1 2 3 3 2 1 0 0 0 0 0 0 0 0 0 0 0 0 0 0 0
0 0 0 0 0 0 0 0 0 0 0 0 0 0 0 0 0 0 0 0 0 0 0 1 2 2 2 1 0 0 0 0 0 0 0 0 0 0 0 0 0 0 0
0 0 0 0 0 0 0 0 0 0 0 0 0 0 0 0 0 0 0 0 0 0 0 0 1 1 1 0 0 0 0 0 0 0 0 0 0 0 0 0 0 0 0
0 0 0 0 0 0 0 0 0 0 0 0 0 0 0 0 0 0 0 0 0 0 0 0 0 0 0 0 0 0 0 0 0 0 0 0 0 0 0 0 0 0 0
0 0 0 0 0 0 0 0 0 0 0 0 0 0 0 0 0 0 0 0 0 0 0 0 0 0 0 0 0 0 0 0 0 0 0 0 0 0 0 0 0 0 0
0 0 0 0 0 0 0 0 0 0 0 0 0 0 0 0 0 0 0 0 0 0 0 0 0 0 0 0 0 0 0 0 0 0 0 0 0 0 0 0 0 0 0
0 0 0 0 0 0 0 0 0 0 0 0 0 0 0 0 0 0 0 0 0 0 0 0 0 0 0 0 0 0 0 0 0 0 0 0 0 0 0 0 0 0 0
0 0 0 0 0 0 0 0 0 0 0 0 0 0 0 0 0 0 0 0 0 0 0 0 0 0 0 0 0 0 0 0 0 0 0 0 0 0 0 0 0 0 0
0 0 0 0 0 0 0 0 0 0 0 0 0 0 0 0 0 0 0 0 0 0 0 0 0 0 0 0 0 0 0 0 0 0 0 0 0 0 0 0 0 0 0
0 0 0 0 0 0 0 0 0 0 0 0 0 0 0 0 0 0 0 0 0 0 0 0 0 0 0 0 0 0 0 0 0 0 0 0 0 0 0 0 0 0 0
0 0 0 0 0 0 0 0 0 0 0 0 0 0 0 0 0 0 0 0 0 0 0 0 0 0 0 0 0 0 0 0 0 0 0 0 0 0 0 0 0 0 0
0 0 0 0 0 0 0 0 0 0 0 0 0 0 0 0 0 0 0 0 0 0 0 0 0 0 0 0 0 0 0 0 0 0 0 0 0 0 0 0 0 0 0
0 0 0 0 0 0 0 0 0 0 0 0 0 0 0 0 0 0 0 0 0 0 0 0 0 0 0 0 0 0 0 0 0 0 0 0 0 0 0 0 0 0 0
0 0 0 0 0 0 0 0 0 0 0 0 0 0 0 0 0 0 0 0 0 0 0 0 0 0 0 0 0 0 0 0 0 0 0 0 0 0 0 0 0 0 0
0 0 0 0 0 0 0 0 0 0 0 0 0 0 0 0 0 0 0 0 0 0 0 0 0 0 0 0 0 0 0 0 0 0 0 0 0 0 0 0 0 0 0
0 0 0 0 0 0 0 0 0 0 0 0 0 0 0 0 0 0 0 0 0 0 0 0 0 0 0 0 0 0 0 0 0 0 0 0 0 0 0 0 0 0 0
0 0 0 0 0 0 0 0 0 0 0 0 0 0 0 0 0 0 0 0 0 0 0 0 0 0 0 0 0 0 0 0 0 0 0 0 0 0 0 0 0 0 0
0 0 0 0 0 0 0 0 0 0 0 0 0 0 0 0 0 0 0 0 0 0 0 0 0 0 0 0 0 0 0 0 0 0 0 0 0 0 0 0 0 0 0
0 0 0 0 0 0 0 0 0 0 0 0 0 0 0 0 0 0 0 0 0 0 0 0 0 0 0 0 0 0 0 0 0 0 0 0 0 0 0 0 0 0 0
0 0 0 0 0 0 0 0 0 0 0 0 0 0 0 0 0 0 0 0 0 0 0 0 0 0 0 0 0 0 0 0 0 0 0 0 0 0 0 0 0 0 0
0 0 0 0 0 0 0 0 0 0 0 0 0 0 0 0 0 0 0 0 0 0 0 0 0 0 0 0 0 0 0 0 0 0 0 0 0 0 0 0 0 0 0
0 0 0 0 0 0 0 0 0 0 0 0 0 0 0 0 0 0 0 0 0 0 0 0 0 0 0 0 0 0 0 0 0 0 0 0 0 0 0 0 0 0 0
0 0 0 0 0 0 0 0 0 0 0 0 0 0 0 0 0 0 0 0 0 0 0 0 0 0 0 0 0 0 0 0 0 0 0 0 0 0 0 0 0 0 0
Wind_Speed
2 3 3 2 2 2 2 1 1 1 0 0 1 1 1 0 1 1 2 2 2 2 2 2 2 2 2 2 2 2 2 1 1 2 1 1 1 1 1 1 1 1 1
2 3 3 2 2 1 1 1 1 1 1 0 0 0 1 1 1 2 2 2 2 1 2 2 2 2 2 2 2 2 1 1 1 1 2 0 1 1 1 0 1 1 1
2 1 1 1 1 1 1 1 0 0 1 0 1 1 1 1 1 2 2 1 2 2 1 2 2 2 2 2 2 2 2 2 0 1 2 2 2 0 0 0 0 0 0
1 1 1 0 1 1 1 1 1 1 1 0 1 1 2 2 2 2 2 2 2 2 2 2 2 2 1 2 2 1 1 3 2 1 0 1 2 2 1 1 0 0 0
0 1 1 2 1 0 0 1 0 0 0 0 1 2 2 2 1 2 2 2 2 2 2 2 2 2 2 2 2 2 1 1 2 2 1 1 0 1 2 2 1 1 1
1 1 0 0 0 0 0 0 1 1 0 1 2 3 3 2 2 3 3 2 2 1 2 2 2 2 2 2 2 2 2 2 2 1 2 2 1 2 1 2 2 2 2
1 1 1 1 1 1 1 1 1 1 1 2 3 3 4 3 4 3 3 3 2 2 2 2 2 2 2 3 3 3 3 3 3 2 2 2 2 1 1 1 2 2 2
1 1 1 1 1 1 1 2 2 2 2 3 3 3 4 3 2 3 3 3 3 3 3 3 2 2 3 3 3 3 3 3 3 3 3 2 2 2 2 2 2 2 2
2 2 2 2 1 2 2 2 3 3 3 3 3 3 3 2 3 3 3 3 3 3 3 3 3 3 3 3 3 3 3 3 4 4 3 3 2 2 2 2 3 3 3
2 2 2 2 2 2 3 2 2 3 4 4 3 2 2 2 3 3 3 3 3 3 4 4 4 4 4 4 4 3 4 4 4 3 4 3 3 2 2 2 2 2 3
2 2 2 2 2 2 2 2 3 3 3 3 3 2 2 2 2 3 4 4 4 4 5 5 5 5 5 5 5 5 5 5 5 4 4 4 4 3 3 3 3 2 2
2 2 2 3 3 3 3 3 3 3 3 3 3 3 2 2 3 3 4 3 4 4 5 5 5 6 6 6 6 6 6 6 6 6 6 6 4 4 4 3 3 3 3
2 2 2 3 3 3 3 3 3 3 3 3 3 3 3 3 3 3 3 3 3 4 4 5 5 6 6 6 7 7 7 7 7 7 7 6 6 6 4 4 4 3 3
2 2 3 3 4 4 4 4 4 4 3 3 3 3 3 3 3 3 3 3 3 3 4 4 4 5 5 5 6 6 6 6 6 6 6 7 7 7 6 5 5 4 4
3 3 4 4 4 4 4 4 5 4 3 3 3 3 3 3 3 3 3 3 3 4 3 3 3 3 4 4 5 5 6 6 6 5 6 6 8 9 7 6 5 5 4
5 4 5 5 5 5 5 5 5 5 3 3 3 3 3 3 3 3 3 3 3 3 2 3 3 4 4 7 9 6 5 5 6 6 5 6 7 9 10 11 10 8 6
5 5 5 5 5 4 4 4 5 5 4 4 4 3 3 4 4 3 2 2 3 2 3 3 3 4 5 8 8 8 5 5 5 6 5 5 6 7 6 7 9 9 10
5 5 5 5 5 4 4 4 4 4 4 4 4 4 3 4 3 2 2 2 2 2 3 3 3 4 5 7 7 8 4 4 4 5 5 6 6 6 6 6 6 6 6
4 4 4 4 5 5 5 4 4 4 4 5 5 4 4 4 3 3 2 2 2 2 2 3 3 3 4 6 7 7 2 3 4 4 4 5 5 8 9 6 6 6 5
4 4 4 4 5 5 5 4 4 4 5 5 5 5 3 3 3 3 3 2 2 3 3 3 3 3 3 5 6 6 2 3 3 3 4 6 6 7 8 6 6 6 6
4 4 4 4 4 5 4 4 4 4 5 5 5 4 3 3 3 3 2 2 2 2 2 2 2 2 3 5 6 5 2 3 3 3 3 3 7 7 7 6 5 7 5
4 4 4 5 4 4 4 4 5 5 5 4 4 4 3 3 3 2 2 2 2 2 2 2 2 2 3 3 4 5 4 4 3 3 3 3 5 6 6 5 5 6 5
4 4 4 5 5 4 3 4 5 5 4 4 4 4 3 3 3 2 2 2 2 2 2 2 2 2 2 2 4 5 4 4 3 3 4 4 5 5 4 4 5 4 2
4 4 4 5 5 5 5 4 5 4 4 3 4 3 3 3 2 2 2 1 1 2 2 2 2 2 2 2 2 2 2 3 3 2 3 4 4 3 3 3 2 1 2
4 4 4 5 6 5 5 5 4 4 4 3 3 3 2 2 2 2 2 2 2 2 2 2 2 2 2 3 4 3 2 2 2 1 1 1 1 1 1 1 1 1 1
4 4 4 5 5 5 5 5 4 3 3 3 3 2 2 2 2 2 2 4 4 5 5 5 4 3 4 5 5 4 4 3 2 1 1 1 1 1 1 2 1 1 1
Wind_Direction
157 134 120 112 106 107 115 127 124 134 90 29 17 351 318 255 116 105 101 105 91 79 89 95 95 92 101 108 105 110 111 110 116 97 73 354 354 90 69 69 91 75 60
138 125 113 108 108 120 133 177 186 169 159 318 313 243 258 221 160 138 137 127 116 105 105 115 124 118 112 102 103 116 113 97 92 126 142 163 3 7 354 32 76 76 55
125 124 136 140 140 156 175 219 234 178 150 26 8 334 289 192 154 152 154 151 147 134 125 136 137 133 134 138 139 139 133 153 186 121 146 159 191 183 313 75 91 81 60
109 140 144 216 222 210 182 195 204 178 185 172 224 257 253 224 202 177 168 164 170 166 159 156 150 151 145 146 158 138 148 155 182 224 266 180 153 158 184 289 245 135 288
299 200 185 214 231 249 200 200 218 221 2 329 255 246 245 235 188 164 171 178 175 174 167 160 157 164 168 168 162 156 173 177 184 192 203 232 146 144 168 214 231 273 265
341 327 222 156 249 333 353 277 228 242 274 278 265 249 243 223 197 194 193 192 186 191 183 174 173 181 184 187 183 181 188 192 197 209 194 191 186 180 177 203 214 235 252
336 327 342 354 338 330 318 312 284 271 282 274 263 259 242 217 212 210 201 196 196 207 204 198 190 192 199 200 192 190 200 197 197 211 214 216 216 203 200 192 227 249 264
307 310 310 311 285 283 286 290 288 290 282 269 261 260 250 221 218 220 211 206 203 204 203 206 205 209 206 208 196 200 208 201 203 217 212 214 228 220 204 195 195 240 261
324 321 335 335 314 294 279 270 280 291 292 281 270 259 248 245 233 228 219 217 210 205 200 208 212 214 212 210 201 206 214 208 209 213 213 214 223 222 223 213 193 193 230
330 325 330 329 316 294 292 291 283 279 282 280 274 267 262 254 245 224 223 219 213 205 201 211 215 216 216 213 211 209 212 214 218 214 213 221 222 220 220 222 226 218 215
320 327 328 317 313 314 307 295 282 285 287 285 284 276 261 255 246 231 228 219 212 205 207 211 213 215 216 212 212 212 211 216 220 220 215 222 220 215 217 222 224 226 221
316 320 326 332 326 317 305 293 289 286 287 289 288 280 270 257 245 243 241 232 220 213 211 212 215 218 220 214 211 214 214 216 217 218 218 221 221 219 221 217 223 226 215
322 329 334 331 322 319 317 312 304 298 298 298 293 292 281 260 251 251 246 236 228 223 220 217 219 223 224 220 216 214 216 219 219 217 220 219 214 221 225 222 222 226 228
312 327 328 325 325 328 328 325 316 308 304 299 292 286 280 269 257 252 246 240 233 226 224 224 227 229 231 228 222 218 219 222 223 224 224 222 219 219 218 223 222 219 220
331 331 324 324 329 332 330 325 318 315 312 305 295 289 290 285 277 260 250 243 242 239 228 225 229 231 234 235 228 225 223 220 224 226 226 228 230 230 229 229 220 212 214
324 328 328 329 327 325 322 321 318 319 322 317 308 309 310 302 290 271 257 248 243 237 225 229 231 237 246 249 246 244 232 225 224 228 228 232 233 234 236 239 236 229 219
319 324 322 319 318 316 318 314 315 324 326 318 313 312 306 303 301 294 263 252 248 241 236 240 237 244 253 254 250 248 246 233 232 230 229 237 237 236 226 233 236 239 238
318 322 327 326 326 324 325 324 329 330 327 318 313 315 314 307 304 296 274 263 252 244 246 253 249 252 256 258 258 253 248 238 237 236 230 231 231 227 223 221 230 237 240
313 318 320 317 320 324 326 327 330 330 328 322 318 321 319 310 299 281 277 274 268 262 258 260 254 252 258 261 263 259 237 241 244 244 240 238 233 237 236 224 225 236 243
327 326 326 323 321 322 328 327 326 330 323 319 316 318 317 308 301 292 282 278 271 261 262 269 262 255 255 262 262 258 233 242 248 245 244 248 247 242 239 224 219 231 236
316 319 320 318 315 320 327 324 325 318 312 314 317 321 323 315 307 308 312 312 296 290 272 274 277 268 266 270 265 258 240 238 243 244 244 247 252 250 248 243 227 235 240
316 319 320 317 318 322 324 318 313 311 316 321 322 323 323 319 320 320 320 319 312 303 291 287 287 280 277 276 276 266 255 253 241 244 247 251 256 257 259 257 248 251 252
309 314 312 310 315 320 316 308 309 316 322 323 320 320 323 324 324 316 312 311 303 293 289 283 282 289 289 284 285 277 262 262 263 253 251 260 262 263 258 265 266 254 229
303 309 311 309 311 315 314 305 310 318 319 316 315 316 319 323 326 320 307 296 283 276 279 278 281 290 294 295 288 274 261 257 262 265 259 255 258 262 266 271 264 239 224
301 302 299 298 300 308 311 312 316 320 315 309 308 311 311 312 312 306 293 286 273 270 275 268 267 277 279 284 292 297 283 259 243 251 262 253 250 232 230 234 237 231 225
296 301 298 298 301 306 307 312 315 314 311 309 310 309 311 310 309 310 309 304 293 303 298 295 291 286 293 303 290 287 292 282 264 226 219 240 246 240 243 245 246 245 244